Overview Statistics Trail Chart Weather Telemetry Raw packets
 

This is the latest recevied weather packets stored in our database for station/object IW2LSY-11. If no packets are shown the sender has not sent any weather packets the latest 10 day(s).

<< 4 5 6 7 8 9 10 >>
Time Temp. Humidity Pressure Rain* Wind** Luminosity Snow
1788474013 20° C 69% 1021.6 hPa - - 561 W/m² -
1788473427 19.44° C 70% 1021.6 hPa - - 561 W/m² -
1788472814 19.44° C 70% 1021.5 hPa - - 562 W/m² -
1788472213 19.44° C 71% 1021.5 hPa - - 563 W/m² -
1788471613 20° C 69% 1021.4 hPa - - 563 W/m² -
1788471013 20.56° C 67% 1021.3 hPa - - 564 W/m² -
1788470413 20.56° C 66% 1021.2 hPa - - 565 W/m² -
1788469813 20.56° C 66% 1021.2 hPa - - 565 W/m² -
1788469212 21.67° C 63% 1021 hPa - - 565 W/m² -
1788468612 20.56° C 66% 1021 hPa - - 566 W/m² -
1788468012 21.67° C 63% 1020.9 hPa - - 566 W/m² -
1788467412 21.67° C 59% 1020.8 hPa - - 568 W/m² -
1788466812 21.67° C 62% 1020.7 hPa - - 568 W/m² -
1788466212 21.67° C 61% 1020.6 hPa - - 568 W/m² -
1788465620 22.22° C 60% 1020.5 hPa - - 568 W/m² -
1788465011 22.22° C 59% 1020.4 hPa - - 569 W/m² -
1788464410 22.78° C 57% 1020.3 hPa - - 570 W/m² -
1788463810 23.33° C 54% 1020.1 hPa - - 570 W/m² -
1788463205 23.33° C 54% 1020.1 hPa - - 571 W/m² -
1788462605 23.33° C 52% 1019.9 hPa - - 572 W/m² -
1788462015 23.33° C 53% 1019.8 hPa - - 572 W/m² -
1788461414 23.89° C 49% 1019.7 hPa - - 573 W/m² -
1788460814 24.44° C 50% 1019.4 hPa - - 574 W/m² -
1788460214 24.44° C 49% 1019.3 hPa - - 574 W/m² -
1788459613 24.44° C 52% 1019.2 hPa - - 574 W/m² -

* Rain since midnight (hover to see other rain measurements)
** Current wind speed in m/s (hover to see current wind gust speed)